Regional Weather Roundup
Issued by NWS Little Rock, AR

Home | Current Version | Previous Version | Graphics & Text | Print | Product List | Glossary On
Versions: 1 2 3 4 5 6 7 8 9 10 11 12 13 14 15 16 17 18 19 20 21 22 23 24 25 26 27
000
ASUS44 KLZK 301805
RWRLZK

WEATHER ROUNDUP FOR ARKANSAS
NATIONAL WEATHER SERVICE LITTLE ROCK AR
100 PM CDT SAT APR 30 2016

NOTE: "FAIR" INDICATES FEW OR NO CLOUDS BELOW 12,000 FEET WITH NO
SIGNIFICANT WEATHER AND/OR OBSTRUCTIONS TO VISIBILITY.

ARZ001-003-010-029-301900-
NORTHWEST ARKANSAS

CITY           SKY/WX    TMP DP  RH WIND       PRES   REMARKS
FAYETTEVILLE   CLOUDY    70  63  78 SW12      29.75F
6HR MIN TEMP:  63; 6HR MAX TEMP:  71;

FORT SMITH     MOSUNNY   77  60  55 SW12      29.72F
6HR MIN TEMP:  64; 6HR MAX TEMP:  77;

HARRISON       MOSUNNY   75  60  59 SW12G18   29.73F
6HR MIN TEMP:  63; 6HR MAX TEMP:  75;

BENTONVILLE    CLOUDY    66  61  82 W10       29.77S
6HR MIN TEMP:  61; 6HR MAX TEMP:  68; 6HR PCP:  0.01;

ROGERS         CLOUDY    69  63  81 W15       29.76F
6HR MIN TEMP:  61; 6HR MAX TEMP:  70; 6HR PCP: TRACE;

SILOAM SPGS    CLOUDY    63  54  72 W8        29.78S
6HR MIN TEMP:  61; 6HR MAX TEMP:  64;

HIGHFILL       CLOUDY    67  64  90 W13       29.76S
6HR MIN TEMP:  62; 6HR MAX TEMP:  68; 6HR PCP:  0.01;

SPRINGDALE     PTSUNNY   72  64  78 SW12G18   29.77F
$$

ARZ004-005-016-301900-
NORTH CENTRAL ARKANSAS

CITY           SKY/WX    TMP DP  RH WIND       PRES   REMARKS
BATESVILLE     CLOUDY    72  63  73 S7        29.78F
6HR MIN TEMP:  64; 6HR MAX TEMP:  72;

FLIPPIN        MOSUNNY  N/A N/A N/A S6        29.71F
MTN HOME       CLOUDY    69  61  75 S6        29.74F
6HR MIN TEMP:  62; 6HR MAX TEMP:  70;

$$

ARZ040-041-301900-
WEST CENTRAL ARKANSAS

CITY           SKY/WX    TMP DP  RH WIND       PRES   REMARKS
MENA           MOSUNNY   79  64  61 S5        29.74F
MOUNT IDA      MOSUNNY   75  62  64 VRB6      29.71F
6HR MIN TEMP:  63; 6HR MAX TEMP:  75;

$$

ARZ009-017-025-026-028-301900-
NORTHEAST ARKANSAS

CITY           SKY/WX    TMP DP  RH WIND       PRES   REMARKS
CORNING          N/A     68  64  88 S9        29.80S
JONESBORO      CLOUDY    71  61  70 SW12      29.79F
6HR MIN TEMP:  65; 6HR MAX TEMP:  71;

NEWPORT        CLOUDY    72  64  75 SW9       29.79F
6HR MIN TEMP:  66; 6HR MAX TEMP:  72;

WALNUT RIDGE   PTSUNNY   70  61  73 SW12      29.79S
6HR MIN TEMP:  64; 6HR MAX TEMP:  70; 6HR PCP:  0.03;

BLYTHEVILLE    CLOUDY    71  62  73 SW10      29.82R
6HR MIN TEMP:  63; 6HR MAX TEMP:  72; 6HR PCP:  0.25;

$$

ARZ022-023-033-042-044-301900-
CENTRAL ARKANSAS

CITY           SKY/WX    TMP DP  RH WIND       PRES   REMARKS
LITTLE ROCK    CLOUDY    72  61  68 CALM      29.77F
6HR MIN TEMP:  65; 6HR MAX TEMP:  72;

N LITTLE ROCK    N/A     71  64  78 CALM      29.75F
6HR MIN TEMP:  64; 6HR MAX TEMP:  71;

JACKSONVILLE   CLOUDY    71  63  77 SW3       29.77F
6HR MIN TEMP:  63; 6HR MAX TEMP:  71;

SEARCY         CLOUDY    71  63  75 S5        29.79F
6HR MIN TEMP:  66; 6HR MAX TEMP:  72;

HOT SPRINGS    PTSUNNY   72  63  73 VRB5      29.76F
6HR MIN TEMP:  63; 6HR MAX TEMP:  72;

RUSSELLVILLE   CLOUDY    72  64  76 SE6       29.74F
6HR MIN TEMP:  64; 6HR MAX TEMP:  72;

$$

ARZ036-301900-
EAST ARKANSAS

CITY           SKY/WX    TMP DP  RH WIND       PRES   REMARKS
WEST MEMPHIS   CLOUDY    71  63  75 S12       29.81R
6HR MIN TEMP:  64; 6HR MAX TEMP:  72; 6HR PCP:  0.21;

$$

ARZ050-053-066-070-073-301900-
SOUTHWEST ARKANSAS

CITY           SKY/WX    TMP DP  RH WIND       PRES   REMARKS
ARKADELPHIA    FAIR      72  69  90 CALM      29.76F
6HR MIN TEMP:  65; 6HR MAX TEMP:  72;

CAMDEN         CLOUDY    75  59  57 CALM      29.75R
TEXARKANA      MOSUNNY   75  65  70 SE7       29.73S
6HR MIN TEMP:  64; 6HR MAX TEMP:  75;

EL DORADO      LGT RAIN  75  62  64 SE14G26   29.73F
6HR MIN TEMP:  65; 6HR MAX TEMP:  75; 6HR PCP:  0.06;

DE QUEEN       MOSUNNY   76  67  73 VRB5      29.71
6HR MIN TEMP:  64; 6HR MAX TEMP:  76;

$$

ARZ056-057-069-301900-
SOUTHEAST ARKANSAS

CITY           SKY/WX    TMP DP  RH WIND       PRES   REMARKS
PINE BLUFF     CLOUDY    71  60  68 SE13      29.74F
6HR MIN TEMP:  65; 6HR MAX TEMP:  71; 6HR PCP:  0.02;

STUTTGART      PTSUNNY   72  59  64 S9        29.77F
6HR MIN TEMP:  64; 6HR MAX TEMP:  72; 6HR PCP:  0.04;

MONTICELLO     CLOUDY    72  61  68 SW7       29.77F
6HR MIN TEMP:  66; 6HR MAX TEMP:  73; 6HR PCP:  0.21;


$$






USA.gov is the U.S. government's official web portal to all federal, state and local government web resources and services.